Vertical_Velocity
0 -0 -1 -1 -0 -0 -0 -1 -1 -1 -1 -1 -1 -2 -2 -2 -2 -2 -2 -2 -2 -2 -2 -1 -1 -2 -1 -1 -2 -2 -2 -2 -1 -1 -1 -0 -0 -0 -0 -0 0 -0 -0 -0 0 0 0 0 0 -0 -0 -0 -1 -1 -0 1 1 0 0 1 1 1 1 0 0 0 1 1 2
1 0 0 0 1 0 -0 -1 -1 -1 -2 -2 -2 -2 -2 -2 -2 -2 -1 -1 -1 -1 -1 -1 -1 -2 -2 -1 -1 -2 -2 -2 -2 -1 -1 -0 -0 0 0 -0 0 0 -0 -0 -0 -0 0 0 -0 -1 -1 -1 -1 -1 -0 1 1 0 -0 -0 1 1 1 0 0 0 1 0 1
1 1 1 1 1 1 0 -1 -1 -2 -2 -2 -2 -2 -2 -2 -2 -2 -1 -1 -1 -1 -1 -1 -1 -2 -2 -2 -2 -1 -1 -2 -2 -2 -1 -1 -0 0 -0 -0 -0 0 0 0 0 0 0 0 -0 -1 -1 -1 -1 -1 -0 1 1 1 0 -1 0 0 0 0 0 0 1 0 1
1 1 1 1 1 1 0 -0 -1 -1 -2 -2 -2 -2 -2 -2 -2 -2 -1 -1 -1 -1 -1 -2 -2 -2 -2 -3 -2 -2 -1 -1 -2 -2 -2 -1 -1 -0 -0 -1 -1 -0 -0 0 0 0 0 0 0 -0 -0 -1 -1 -0 -0 0 1 1 1 0 0 0 -0 -0 0 1 1 0 1
1 1 1 1 2 1 1 0 -0 -1 -1 -1 -1 -1 -1 -1 -1 -1 -1 -1 -1 -1 -1 -2 -2 -2 -2 -2 -2 -2 -1 -1 -1 -1 -2 -2 -1 -1 -0 -0 -1 -1 -0 -0 0 0 0 0 0 0 0 0 0 0 1 1 1 0 1 1 1 1 0 -0 0 0 1 0 0
1 1 1 1 1 1 1 1 0 -0 -1 -1 -1 -1 -1 -1 -1 -1 -2 -2 -1 -1 -1 -2 -2 -2 -2 -2 -2 -2 -1 -1 -1 -1 -1 -2 -1 -1 -1 -0 -0 -0 -0 -0 0 0 0 -0 -0 0 1 1 1 1 1 1 1 0 0 1 1 1 1 -0 -0 0 0 0 0
0 0 1 1 2 2 2 1 0 -0 -1 -1 -1 -1 -1 -1 -1 -1 -1 -1 -1 -1 -2 -2 -2 -2 -2 -2 -2 -1 -1 -1 -1 -1 -1 -1 -1 -1 -1 -1 -0 -0 0 0 0 0 1 0 -0 -1 -0 1 0 1 1 2 1 0 -0 -0 1 1 1 -0 0 0 -0 -0 -0
-0 0 1 2 2 2 2 1 -0 -1 -1 -2 -2 -2 -2 -2 -2 -2 -1 -1 -1 -2 -2 -2 -2 -2 -2 -2 -2 -1 -1 -2 -1 -1 -1 -1 -1 -1 -1 -1 -1 -0 0 0 0 0 0 0 0 -0 -0 -0 -0 0 1 1 1 0 -0 -1 -0 0 0 -0 -0 -0 -0 -0 -0
0 1 1 2 2 2 1 0 -1 -1 -1 -2 -2 -2 -2 -2 -2 -2 -2 -2 -1 -1 -2 -2 -2 -2 -2 -1 -1 -1 -1 -1 -1 -1 -1 -1 -1 -1 -1 -1 -1 -0 0 1 0 0 -0 -0 0 0 0 0 -0 -0 0 1 0 -0 -0 -1 -1 -1 -0 -0 -0 -0 0 -0 -1
1 1 1 1 1 1 0 -0 -1 -1 -2 -2 -2 -2 -2 -2 -2 -2 -2 -2 -2 -2 -2 -2 -2 -2 -1 -1 -1 -1 -1 -1 -1 -1 -1 -1 -1 -1 -1 -1 -1 -1 -1 -0 0 0 -0 -1 -1 -0 1 1 0 -0 -0 0 -0 -1 -1 -1 -2 -2 -2 -1 -0 -0 0 0 -0
1 1 1 1 0 0 -0 -0 -1 -1 -2 -2 -2 -2 -1 -1 -1 -1 -2 -2 -3 -2 -2 -2 -2 -2 -2 -1 -1 -1 -1 -1 -1 -1 -1 -1 -1 -1 -1 -1 -1 -1 -1 -1 -0 -0 -1 -1 -1 -1 -0 1 0 -0 -1 -0 -1 -1 -1 -1 -2 -3 -3 -3 -1 -0 -0 -0 -1
1 1 0 0 0 0 -0 -1 -1 -1 -1 -2 -2 -1 -1 -1 -2 -2 -2 -3 -3 -3 -2 -2 -2 -2 -2 -1 -1 -1 -1 -1 -1 -1 -1 -1 -1 -1 -1 -1 -1 -1 -1 -1 -0 -0 -1 -1 -1 -1 -1 -0 -0 -0 -1 -1 -1 -2 -2 -2 -2 -2 -3 -3 -1 -0 0 -0 -1
0 0 0 0 0 -0 -0 -1 -1 -1 -1 -1 -2 -1 -1 -1 -2 -3 -3 -4 -3 -3 -2 -1 -1 -1 -2 -2 -1 -1 -1 -1 -1 -1 -1 -1 -1 -1 -1 -1 -1 -1 -1 -1 -0 -0 -0 -0 -0 -1 -1 -1 -1 -0 -1 -1 -2 -2 -3 -3 -3 -2 -2 -2 -1 -1 -0 -0 -1
0 0 0 0 0 -0 -0 -0 -1 -1 -1 -1 -2 -2 -2 -2 -2 -3 -4 -4 -3 -3 -2 -2 -1 -1 -1 -1 -1 -1 -1 -1 -1 -1 -1 -1 -1 -1 -1 -1 -1 -1 -1 -1 -0 -0 -0 -0 -0 -0 -1 -1 -1 -1 -1 -1 -1 -2 -2 -3 -3 -2 -2 -2 -1 -1 -1 -1 -2
0 0 0 0 0 -0 -0 -0 -1 -1 -1 -1 -2 -2 -2 -3 -3 -3 -4 -3 -3 -2 -2 -2 -1 -1 -0 -0 -1 -1 -1 -1 -1 -1 -1 -1 -1 -1 -1 -2 -1 -1 -1 -1 -1 -0 0 0 0 -0 -0 -1 -2 -1 -1 -1 -1 -1 -1 -1 -2 -2 -1 -1 -1 -0 -1 -2 -3
0 0 0 0 0 -0 -0 -1 -1 -1 -2 -2 -2 -2 -3 -3 -3 -3 -3 -3 -2 -2 -1 -1 -1 -1 -0 0 -0 -1 -1 -1 -1 -1 -2 -2 -2 -2 -1 -2 -2 -1 -1 -1 -1 -0 0 1 1 0 -0 -1 -1 -2 -1 -1 -1 -1 -1 -0 -0 -0 -0 -0 -0 -1 -1 -2 -3
0 0 0 -0 -0 -0 -1 -1 -1 -1 -2 -2 -2 -3 -4 -4 -3 -3 -2 -2 -2 -2 -1 -1 -1 -1 -1 -0 -0 -1 -1 -1 -1 -1 -2 -2 -2 -2 -2 -2 -2 -2 -1 -1 -1 -1 -0 1 1 1 0 -0 -1 -1 -1 -1 -1 -1 -1 -0 0 0 0 0 -0 -1 -2 -2 -3
0 -0 -0 -0 -1 -1 -1 -1 -1 -1 -2 -2 -3 -3 -4 -4 -3 -2 -2 -1 -2 -2 -2 -1 -1 -1 -1 -1 -1 -1 -1 -2 -2 -1 -1 -2 -2 -2 -2 -2 -2 -1 -1 -1 -1 -1 -1 -0 -0 -0 -0 -0 -0 -1 -1 -1 -1 -1 -1 -1 -0 -0 0 0 -0 -1 -1 -2 -3
-0 -1 -1 -1 -1 -1 -1 -1 -1 -1 -2 -3 -3 -3 -3 -3 -3 -2 -1 -1 -1 -1 -1 -1 -1 -1 -1 -1 -1 -1 -1 -1 -2 -2 -1 -2 -2 -2 -2 -2 -1 -1 -1 -0 -0 -0 -0 -1 -1 -1 -1 -1 -1 -1 -0 -1 -1 -1 -1 -1 -1 -0 -0 -0 -1 -1 -1 -2 -2
-1 -1 -1 -1 -1 -1 -1 -1 -1 -2 -3 -3 -4 -4 -3 -2 -2 -2 -2 -1 -1 -1 -1 -1 -1 -1 -1 -1 -1 -1 -1 -1 -1 -2 -2 -2 -2 -2 -1 -2 -2 -1 -1 -0 0 0 -0 -1 -1 -1 -1 -1 -1 -1 -1 -1 -1 -1 -1 -1 -1 -1 -1 -1 -1 -1 -1 -1 -1
-1 -1 -1 -1 -1 -1 -1 -1 -2 -2 -3 -4 -4 -3 -3 -2 -2 -1 -1 -1 -1 -1 -0 -1 -1 -1 -1 -1 -2 -1 -1 -1 -1 -1 -2 -2 -2 -1 -1 -1 -1 -1 -1 0 0 0 -0 -1 -1 -1 -1 -1 -1 -2 -2 -2 -2 -2 -1 -1 -0 -0 -0 -0 -1 -1 -1 -1 -1
-1 -1 -1 -1 -1 -1 -1 -1 -2 -3 -3 -3 -3 -3 -2 -2 -1 -1 -1 -1 -1 -0 -0 -1 -1 -1 -2 -2 -2 -2 -2 -1 -1 -1 -1 -2 -2 -1 -1 -1 -1 -1 -1 -0 0 -0 -1 -1 -1 -1 -1 -2 -2 -3 -3 -3 -3 -3 -2 -1 -1 0 0 1 0 0 -0 -0 -1
-1 -1 -1 -1 -0 -1 -1 -2 -2 -3 -3 -3 -3 -2 -2 -1 -1 -1 -1 -0 -0 -0 -0 -1 -1 -1 -1 -2 -2 -2 -2 -2 -2 -1 -1 -1 -2 -2 -1 -1 -1 -1 -1 -0 -0 -1 -2 -4 -3 -3 -2 -3 -4 -4 -4 -3 -3 -4 -4 -3 -2 -1 0 1 1 1 0 -0 -0
-1 -1 -1 -0 -1 -1 -2 -2 -2 -3 -3 -3 -2 -2 -2 -1 -1 -1 -1 -0 -0 -0 -0 -1 -1 -1 -1 -1 -1 -2 -2 -3 -3 -3 -2 -1 -2 -2 -2 -1 -1 -0 -0 0 0 -0 -2 -3 -4 -4 -3 -3 -3 -3 -3 -3 -3 -3 -3 -4 -3 -2 -1 -0 0 1 1 -0 -0
-1 -0 -1 -1 -1 -1 -2 -2 -3 -3 -3 -2 -2 -2 -1 -1 -1 -1 -1 -0 -0 -0 -1 -1 -1 -1 -2 -2 -1 -1 -1 -2 -2 -3 -4 -4 -3 -2 -2 -1 -1 -0 -0 0 0 0 0 0 -1 -1 -2 -2 -1 -2 -2 -2 -2 -1 -2 -2 -3 -4 -4 -3 -1 0 1 0 -1
-1 -1 -1 -1 -1 -2 -2 -2 -2 -2 -2 -2 -2 -2 -1 -1 -1 -1 -1 -1 -1 -1 -1 -1 -2 -2 -2 -2 -2 -2 -2 -1 -1 -2 -3 -4 -4 -4 -2 -2 -1 -1 -0 0 -0 -0 -0 1 2 2 1 0 -1 -1 -2 -2 -1 -1 -1 -1 -2 -2 -3 -4 -3 -2 -0 0 -1
-1 -1 -1 -1 -2 -2 -2 -2 -2 -2 -2 -2 -1 -1 -1 -1 -0 -0 -0 -1 -1 -1 -1 -1 -2 -2 -2 -2 -3 -3 -3 -2 -2 -2 -2 -3 -4 -4 -4 -3 -1 -1 -0 -0 -1 -1 -1 0 1 2 3 2 0 -1 -2 -2 -2 -1 -1 -1 -1 -1 -2 -3 -3 -2 -1 -1 -3
-1 -1 -1 -2 -2 -2 -2 -2 -2 -2 -1 -1 -1 -1 -1 -0 -0 -0 -0 -1 -1 -1 -1 -2 -2 -2 -2 -2 -3 -3 -3 -3 -2 -2 -2 -2 -3 -3 -3 -3 -2 -1 0 0 -0 -1 -1 -0 0 1 2 2 1 -0 -1 -1 -2 -2 -1 -1 -1 -0 -0 -1 -1 -2 -2 -4 -5
-1 -2 -2 -2 -2 -2 -2 -2 -2 -1 -1 -1 -1 -1 -0 -0 -0 -0 -0 -1 -1 -2 -2 -2 -2 -3 -3 -3 -3 -3 -3 -2 -2 -2 -2 -3 -3 -2 -2 -2 -2 -1 0 1 -0 -1 -1 -0 -0 0 1 2 2 1 -0 -0 -1 -1 -1 -1 -0 0 1 1 0 -1 -3 -6 -6
-1 -2 -2 -3 -3 -3 -2 -2 -1 -1 -1 -1 -1 -0 -0 -0 -0 -0 -0 -1 -1 -2 -2 -3 -4 -4 -4 -4 -4 -4 -4 -3 -2 -2 -2 -2 -3 -3 -3 -2 -2 -1 -0 0 -0 -1 -1 -1 -1 -0 0 1 1 1 -0 -1 -0 -1 -1 -1 0 1 1 1 0 -1 -3 -6 -6
-2 -2 -3 -4 -4 -3 -2 -1 -1 -1 -1 -1 -0 -0 -0 -0 -0 -1 -1 -2 -2 -2 -2 -3 -3 -4 -4 -3 -3 -3 -3 -3 -2 -1 -1 -2 -3 -4 -3 -3 -2 -1 -0 -0 -1 -1 -1 -1 -1 -0 -0 0 1 0 -0 -0 -0 -0 -0 -0 -0 0 1 0 -1 -3 -4 -5 -4
-2 -3 -4 -4 -3 -3 -2 -1 -1 -1 -1 -1 -0 -0 -0 -0 -1 -1 -1 -1 -3 -4 -4 -4 -4 -4 -4 -3 -3 -2 -2 -2 -2 -1 -1 -1 -2 -3 -4 -3 -2 -1 -0 -0 -1 -1 -1 -1 -1 -1 -0 0 0 0 0 -0 -0 -1 -1 -1 -0 -0 0 0 -1 -3 -4 -4 -2
-3 -3 -4 -4 -3 -2 -1 -1 -1 -1 -1 -1 -0 -1 -1 -1 -1 -1 -1 -1 -3 -4 -5 -5 -4 -4 -4 -4 -4 -3 -2 -2 -1 -1 -0 -0 -1 -2 -3 -3 -2 -1 -0 -0 -1 -1 -1 -1 -1 -1 -1 0 0 0 -1 -0 -1 -1 -1 -1 -0 0 0 1 -1 -3 -4 -3 -0
-3 -3 -3 -3 -2 -1 -1 -1 -1 -1 -1 -1 -1 -1 -1 -1 -2 -2 -2 -2 -3 -4 -4 -4 -3 -3 -2 -2 -2 -3 -3 -3 -2 -1 -0 -0 -1 -2 -3 -3 -2 -0 0 0 -0 -1 -1 -1 -1 -1 -0 0 0 -0 -1 -1 -1 -1 -1 -1 -0 0 1 1 -2 -3 -4 -2 1
-3 -3 -2 -2 -1 -1 -1 -1 -1 -1 -1 -1 -1 -1 -1 -1 -2 -3 -3 -3 -4 -4 -3 -2 -2 -1 -1 -1 -1 -1 -2 -3 -2 -1 -0 0 -1 -2 -3 -3 -2 0 1 1 -0 -1 -1 -1 -1 -0 -0 0 -0 -1 -1 -1 -1 -1 -0 0 0 1 1 -0 -3 -4 -3 -0 2
-3 -2 -2 -1 -1 -1 -1 -1 -1 -1 -1 -1 -1 -1 -2 -2 -2 -2 -3 -3 -3 -3 -3 -2 -2 -1 -1 -1 -1 -1 -1 -1 -1 -1 -0 0 -0 -2 -3 -4 -3 -1 1 1 -0 -1 -1 -1 -1 -0 -0 0 -1 -1 -1 -1 -1 -0 0 1 1 0 -0 -2 -4 -4 -2 1 4
-2 -1 -1 -1 -1 -1 -0 -0 -1 -1 -1 -1 -1 -2 -3 -4 -3 -3 -2 -2 -3 -3 -3 -3 -2 -2 -2 -2 -2 -1 -0 1 -0 -1 -1 -0 0 -1 -3 -5 -4 -2 0 1 -0 -1 -1 -1 -0 -0 -0 -1 -1 -1 -1 -1 -0 -0 0 0 -0 -1 -1 -3 -4 -4 -2 1 3
-1 -1 -1 -1 -1 -1 -0 -0 -0 -1 -1 -1 -2 -2 -3 -4 -4 -3 -2 -1 -2 -3 -4 -4 -3 -2 -1 -1 -2 -2 -1 1 1 0 -1 -1 0 -0 -2 -5 -5 -3 -1 0 -0 -1 -2 -1 -1 -0 -0 -1 -1 -1 -1 -1 -1 -1 -1 -1 -1 -2 -2 -4 -4 -4 -2 -0 -0
-0 -0 -1 -1 -1 -0 -0 0 0 -1 -1 -3 -3 -3 -3 -3 -3 -2 -1 -0 -1 -2 -3 -4 -3 -2 -1 -1 -2 -3 -2 -0 2 2 1 -0 0 0 -1 -3 -5 -4 -2 -0 -0 -1 -2 -2 -1 -1 -0 -0 -0 -0 -0 -0 -1 -1 -2 -2 -3 -3 -3 -4 -4 -4 -3 -3 -4
0 -0 -0 -0 -0 0 0 0 -0 -1 -2 -3 -4 -4 -3 -3 -2 -2 -1 -0 -0 -1 -1 -3 -3 -2 -1 -1 -2 -3 -4 -2 0 2 2 1 0 0 0 -1 -3 -4 -2 -0 -0 -1 -2 -3 -2 -1 -0 0 0 1 1 1 -1 -2 -3 -3 -3 -4 -4 -4 -5 -6 -6 -6 -3
0 0 0 0 1 1 0 -1 -1 -2 -2 -3 -3 -3 -3 -2 -2 -2 -1 -1 -0 -0 -1 -2 -2 -2 -1 -0 -1 -2 -4 -4 -2 1 2 2 1 1 0 -1 -2 -3 -3 -2 -1 -1 -2 -3 -3 -2 -0 1 1 1 1 0 -1 -3 -4 -4 -3 -2 -3 -4 -5 -6 -7 -6 -2
Height
1542 1542 1542 1542 1542 1542 1542 1542 1542 1542 1542 1542 1542 1541 1541 1541 1540 1539 1539 1538 1537 1537 1536 1535 1534 1534 1533 1532 1531 1530 1529 1528 1527 1526 1525 1524 1523 1522 1521 1520 1519 1518 1517 1515 1514 1514 1512 1511 1510 1509 1508 1507 1506 1505 1504 1503 1502 1501 1500 1499 1498 1497 1496 1495 1494 1494 1493 1493 1492
1541 1541 1541 1541 1541 1541 1541 1541 1541 1541 1540 1540 1540 1540 1540 1539 1539 1538 1538 1537 1536 1535 1534 1534 1533 1532 1531 1530 1529 1528 1527 1526 1525 1524 1523 1522 1521 1520 1519 1518 1517 1516 1514 1514 1512 1511 1510 1509 1508 1506 1505 1504 1503 1502 1501 1501 1500 1499 1498 1497 1496 1495 1494 1493 1492 1491 1491 1490 1489
1540 1540 1540 1540 1539 1539 1539 1539 1539 1539 1539 1539 1539 1539 1539 1538 1537 1537 1536 1535 1534 1534 1533 1532 1531 1530 1529 1529 1528 1527 1525 1524 1523 1522 1521 1520 1519 1518 1517 1516 1515 1514 1513 1511 1510 1509 1508 1507 1505 1504 1503 1502 1501 1500 1499 1498 1497 1496 1495 1494 1493 1492 1491 1490 1489 1489 1488 1487 1487
1539 1539 1539 1539 1538 1538 1538 1538 1538 1538 1538 1538 1538 1538 1537 1536 1536 1535 1535 1534 1533 1532 1531 1531 1530 1529 1528 1527 1526 1525 1524 1522 1521 1520 1519 1518 1517 1516 1515 1514 1513 1511 1510 1509 1508 1507 1506 1504 1503 1502 1500 1499 1498 1497 1496 1495 1495 1494 1493 1491 1490 1489 1489 1488 1487 1486 1485 1484 1484
1538 1538 1538 1537 1537 1537 1537 1537 1537 1537 1537 1537 1537 1536 1536 1535 1534 1534 1533 1532 1532 1531 1530 1529 1528 1527 1526 1525 1524 1523 1522 1520 1519 1518 1517 1516 1515 1514 1513 1512 1510 1509 1508 1507 1506 1505 1503 1502 1501 1499 1498 1497 1496 1495 1494 1493 1492 1491 1490 1489 1488 1487 1486 1485 1484 1484 1483 1482 1481
1537 1537 1537 1536 1536 1536 1536 1536 1536 1536 1536 1535 1535 1535 1534 1534 1533 1532 1532 1531 1530 1529 1528 1527 1526 1525 1524 1523 1522 1521 1519 1518 1517 1516 1515 1514 1513 1512 1511 1509 1509 1507 1506 1505 1504 1502 1501 1500 1498 1497 1496 1495 1494 1493 1492 1491 1489 1488 1487 1486 1485 1485 1484 1483 1482 1481 1480 1479 1479
1536 1536 1536 1536 1535 1535 1535 1535 1535 1534 1534 1534 1534 1533 1533 1532 1531 1531 1530 1529 1529 1528 1527 1525 1524 1523 1522 1521 1520 1519 1517 1516 1515 1514 1513 1512 1511 1510 1509 1507 1506 1505 1504 1503 1501 1500 1499 1498 1496 1495 1494 1492 1491 1490 1489 1489 1487 1486 1484 1484 1483 1482 1481 1480 1479 1479 1478 1477 1476
1535 1535 1535 1535 1535 1534 1534 1534 1534 1533 1533 1533 1532 1532 1531 1530 1530 1529 1528 1528 1527 1526 1525 1524 1522 1521 1520 1519 1518 1516 1515 1514 1513 1512 1511 1510 1509 1508 1506 1505 1504 1503 1502 1501 1499 1498 1497 1495 1494 1493 1491 1490 1489 1488 1487 1486 1485 1484 1482 1481 1480 1479 1479 1478 1477 1476 1475 1474 1474
1534 1534 1534 1534 1534 1534 1533 1533 1532 1532 1532 1531 1531 1530 1529 1529 1528 1528 1527 1526 1525 1524 1523 1522 1520 1519 1518 1517 1516 1514 1513 1512 1511 1510 1509 1508 1506 1505 1504 1503 1502 1501 1499 1499 1497 1496 1494 1493 1492 1490 1489 1488 1487 1485 1484 1484 1483 1481 1480 1479 1478 1477 1476 1476 1475 1474 1473 1472 1471
1533 1534 1534 1533 1533 1532 1532 1531 1531 1531 1530 1530 1529 1529 1528 1528 1527 1526 1525 1524 1523 1522 1521 1520 1519 1517 1516 1515 1514 1513 1511 1510 1509 1508 1506 1505 1504 1503 1502 1501 1499 1498 1497 1496 1495 1494 1492 1490 1489 1488 1487 1486 1485 1484 1482 1481 1480 1479 1478 1477 1476 1475 1474 1474 1473 1472 1471 1470 1469
1532 1532 1532 1532 1532 1531 1531 1530 1530 1529 1529 1529 1528 1528 1527 1526 1525 1524 1524 1523 1522 1520 1519 1518 1517 1515 1514 1513 1512 1510 1509 1508 1507 1505 1504 1503 1502 1501 1500 1499 1497 1496 1495 1494 1493 1491 1490 1488 1487 1486 1485 1484 1483 1481 1480 1479 1478 1477 1475 1474 1474 1473 1472 1471 1471 1470 1469 1468 1466
1531 1531 1531 1531 1530 1530 1529 1529 1529 1528 1528 1527 1527 1526 1525 1524 1524 1523 1522 1521 1520 1519 1517 1516 1515 1514 1512 1511 1510 1509 1507 1506 1505 1503 1502 1501 1500 1499 1498 1496 1495 1494 1493 1492 1490 1489 1488 1486 1485 1484 1482 1481 1480 1479 1478 1477 1476 1474 1473 1472 1471 1471 1469 1469 1468 1467 1466 1465 1464
1530 1530 1530 1529 1529 1529 1528 1528 1527 1527 1526 1526 1525 1524 1524 1523 1522 1521 1520 1519 1518 1517 1515 1514 1513 1512 1510 1509 1508 1506 1505 1504 1503 1501 1500 1499 1498 1496 1495 1494 1493 1492 1491 1489 1488 1487 1486 1484 1483 1481 1480 1479 1478 1477 1476 1475 1474 1472 1471 1470 1469 1468 1467 1466 1466 1465 1464 1463 1462
1529 1529 1529 1528 1528 1528 1527 1527 1526 1525 1525 1524 1524 1523 1522 1521 1520 1519 1518 1517 1516 1514 1514 1512 1511 1510 1509 1507 1506 1504 1503 1502 1500 1499 1498 1497 1496 1494 1493 1492 1491 1490 1489 1487 1486 1485 1484 1482 1481 1479 1478 1477 1475 1475 1474 1473 1472 1470 1469 1468 1467 1466 1465 1464 1463 1462 1461 1460 1459
1528 1528 1527 1527 1527 1526 1526 1525 1525 1524 1524 1523 1522 1521 1520 1519 1519 1517 1516 1515 1514 1513 1511 1510 1509 1508 1507 1505 1504 1502 1501 1500 1499 1497 1496 1495 1494 1493 1491 1490 1489 1488 1487 1485 1484 1483 1482 1480 1479 1478 1476 1475 1474 1472 1472 1471 1470 1469 1467 1466 1465 1464 1463 1462 1461 1460 1459 1458 1457
1526 1526 1526 1526 1526 1525 1525 1524 1523 1523 1522 1521 1520 1519 1519 1518 1517 1516 1514 1513 1512 1511 1509 1508 1507 1506 1504 1503 1502 1500 1499 1498 1496 1495 1494 1493 1492 1490 1489 1488 1487 1486 1484 1483 1482 1481 1480 1479 1477 1476 1474 1473 1472 1470 1469 1469 1468 1467 1465 1464 1463 1462 1461 1460 1459 1458 1457 1456 1454
1525 1525 1525 1525 1524 1524 1524 1523 1522 1521 1520 1519 1519 1518 1517 1516 1515 1514 1513 1511 1510 1509 1508 1506 1505 1504 1502 1501 1500 1499 1497 1496 1494 1493 1492 1491 1489 1489 1487 1486 1485 1484 1483 1481 1480 1479 1478 1477 1475 1474 1473 1471 1470 1469 1468 1466 1465 1464 1464 1462 1461 1460 1459 1458 1457 1456 1454 1453 1452
1524 1524 1524 1524 1523 1523 1522 1521 1520 1519 1519 1518 1517 1516 1515 1514 1513 1512 1511 1510 1508 1507 1506 1504 1503 1502 1500 1499 1498 1497 1495 1494 1493 1491 1490 1489 1488 1487 1486 1484 1483 1482 1481 1480 1478 1477 1475 1474 1473 1472 1471 1469 1468 1467 1466 1464 1464 1462 1461 1460 1459 1458 1457 1456 1454 1453 1452 1451 1450
1523 1523 1523 1523 1522 1521 1521 1520 1519 1518 1517 1516 1516 1515 1514 1513 1511 1510 1509 1508 1507 1505 1504 1502 1501 1500 1499 1497 1496 1494 1493 1492 1491 1489 1489 1488 1486 1485 1484 1483 1482 1480 1479 1478 1476 1475 1474 1472 1471 1470 1469 1467 1466 1465 1464 1463 1461 1460 1459 1458 1457 1455 1454 1453 1452 1451 1450 1449 1448
1522 1522 1522 1521 1521 1520 1519 1518 1518 1517 1516 1515 1514 1513 1512 1511 1509 1509 1507 1506 1505 1503 1502 1500 1499 1498 1496 1495 1494 1493 1492 1490 1489 1488 1487 1486 1485 1484 1482 1481 1480 1479 1477 1476 1475 1473 1472 1470 1469 1468 1467 1465 1464 1463 1462 1460 1459 1458 1457 1455 1454 1453 1452 1451 1450 1449 1448 1447 1446
1521 1521 1520 1520 1519 1519 1518 1517 1516 1515 1514 1513 1512 1511 1510 1509 1508 1507 1505 1504 1503 1501 1500 1499 1497 1496 1494 1493 1492 1491 1490 1489 1488 1486 1485 1484 1483 1482 1481 1479 1478 1477 1475 1474 1473 1471 1470 1469 1467 1466 1464 1463 1462 1460 1459 1458 1457 1455 1454 1453 1452 1451 1450 1449 1448 1447 1446 1445 1444
1520 1519 1519 1518 1518 1517 1516 1515 1514 1513 1512 1511 1510 1509 1508 1507 1506 1505 1504 1502 1501 1499 1498 1497 1495 1494 1493 1491 1490 1489 1488 1487 1486 1485 1484 1483 1482 1480 1479 1478 1476 1475 1474 1472 1471 1469 1468 1466 1465 1464 1462 1461 1459 1458 1457 1456 1454 1453 1452 1451 1450 1449 1448 1447 1446 1445 1444 1443 1442
1518 1518 1517 1517 1516 1515 1514 1514 1512 1511 1510 1509 1508 1507 1506 1505 1504 1503 1502 1500 1499 1498 1496 1495 1494 1492 1491 1489 1488 1487 1486 1485 1484 1483 1482 1481 1480 1479 1478 1476 1475 1473 1472 1470 1469 1467 1466 1464 1463 1461 1460 1459 1457 1456 1455 1454 1453 1451 1450 1449 1448 1447 1446 1445 1444 1443 1442 1441 1440
1517 1516 1516 1515 1514 1514 1513 1512 1511 1509 1509 1508 1506 1505 1504 1503 1502 1501 1499 1498 1497 1496 1494 1493 1492 1490 1489 1488 1487 1486 1484 1483 1482 1481 1480 1479 1478 1477 1476 1474 1473 1472 1470 1469 1467 1465 1464 1462 1460 1459 1458 1457 1455 1454 1453 1452 1451 1449 1448 1447 1446 1444 1444 1443 1442 1441 1440 1439 1438
1515 1515 1514 1514 1513 1512 1511 1510 1509 1508 1507 1506 1504 1504 1502 1501 1500 1499 1498 1496 1495 1494 1492 1491 1490 1489 1488 1486 1485 1484 1483 1482 1481 1479 1478 1477 1476 1475 1474 1473 1471 1470 1468 1467 1465 1464 1462 1461 1459 1458 1456 1455 1454 1453 1451 1450 1449 1448 1447 1445 1444 1443 1441 1440 1439 1439 1438 1437 1436
1514 1513 1513 1512 1511 1510 1509 1508 1507 1506 1505 1504 1503 1502 1500 1499 1498 1497 1495 1494 1493 1492 1490 1489 1488 1487 1486 1485 1484 1483 1482 1480 1479 1478 1477 1475 1474 1473 1472 1471 1469 1468 1466 1465 1464 1462 1461 1459 1458 1457 1455 1454 1452 1451 1449 1448 1447 1446 1445 1444 1442 1441 1440 1439 1437 1436 1436 1435 1434
1512 1512 1511 1510 1509 1509 1508 1506 1505 1504 1503 1502 1501 1500 1499 1498 1496 1495 1494 1492 1491 1490 1489 1488 1486 1485 1484 1483 1482 1481 1480 1479 1478 1476 1475 1474 1472 1471 1470 1469 1467 1466 1464 1463 1462 1460 1459 1457 1456 1455 1454 1452 1450 1449 1448 1446 1445 1444 1443 1441 1440 1439 1438 1437 1435 1434 1433 1432 1431
1511 1510 1509 1509 1508 1507 1506 1505 1504 1503 1501 1500 1499 1498 1497 1495 1494 1493 1492 1490 1489 1488 1487 1486 1484 1484 1483 1481 1480 1479 1478 1477 1476 1475 1473 1472 1470 1469 1468 1466 1465 1464 1463 1461 1460 1458 1457 1455 1454 1453 1452 1450 1449 1447 1446 1444 1443 1442 1441 1439 1438 1437 1436 1435 1434 1432 1431 1429 1429
1509 1509 1508 1507 1506 1505 1504 1503 1502 1501 1500 1499 1497 1496 1495 1494 1492 1491 1490 1489 1487 1486 1485 1484 1483 1482 1481 1480 1479 1478 1477 1475 1474 1473 1471 1470 1469 1467 1466 1464 1463 1462 1461 1459 1458 1456 1455 1454 1452 1451 1450 1449 1447 1446 1444 1443 1441 1440 1439 1437 1436 1435 1434 1433 1431 1430 1429 1427 1426
1508 1507 1506 1505 1504 1504 1503 1501 1500 1499 1498 1497 1496 1494 1493 1492 1490 1489 1488 1487 1485 1484 1483 1482 1481 1480 1479 1479 1477 1476 1475 1474 1472 1471 1469 1468 1466 1465 1464 1463 1461 1460 1459 1457 1456 1454 1453 1451 1450 1449 1448 1447 1445 1444 1442 1441 1439 1438 1436 1435 1434 1433 1432 1431 1429 1428 1427 1425 1424
1506 1505 1504 1504 1503 1502 1501 1500 1499 1497 1496 1495 1494 1493 1491 1490 1489 1488 1486 1485 1484 1483 1482 1481 1480 1479 1478 1477 1476 1474 1473 1472 1470 1469 1468 1466 1464 1463 1462 1460 1459 1458 1456 1455 1454 1452 1451 1449 1448 1447 1446 1445 1444 1442 1440 1439 1437 1436 1434 1433 1432 1431 1429 1429 1427 1426 1425 1424 1423
1504 1504 1503 1502 1501 1500 1499 1498 1497 1495 1494 1493 1492 1491 1489 1488 1487 1486 1485 1484 1482 1481 1480 1479 1478 1477 1476 1475 1474 1472 1471 1469 1468 1467 1465 1464 1462 1461 1459 1458 1457 1456 1454 1453 1452 1450 1449 1447 1446 1445 1444 1443 1441 1440 1438 1436 1435 1434 1432 1431 1429 1429 1428 1426 1425 1424 1423 1422 1421
1503 1502 1501 1500 1499 1498 1497 1496 1495 1494 1492 1491 1490 1489 1488 1486 1485 1484 1483 1482 1481 1480 1479 1478 1476 1475 1474 1473 1471 1470 1469 1468 1466 1465 1464 1462 1460 1459 1457 1456 1455 1454 1452 1451 1449 1448 1447 1445 1444 1443 1441 1440 1439 1437 1436 1434 1433 1431 1430 1428 1427 1426 1425 1424 1423 1422 1421 1420 1419
1501 1500 1499 1498 1497 1496 1495 1494 1493 1492 1490 1489 1488 1487 1486 1485 1484 1483 1482 1480 1479 1478 1477 1476 1475 1474 1472 1471 1469 1468 1467 1465 1464 1463 1461 1460 1458 1457 1455 1454 1453 1452 1450 1449 1448 1446 1444 1443 1442 1440 1439 1438 1436 1435 1433 1432 1430 1429 1427 1426 1425 1424 1423 1422 1421 1420 1419 1418 1417
1499 1499 1498 1497 1495 1494 1493 1492 1491 1490 1489 1488 1486 1485 1484 1483 1482 1481 1480 1479 1478 1477 1475 1474 1473 1472 1471 1469 1468 1466 1465 1463 1462 1461 1459 1458 1456 1454 1453 1452 1450 1449 1449 1447 1445 1444 1442 1441 1439 1438 1437 1435 1434 1432 1430 1429 1428 1426 1425 1424 1423 1421 1420 1419 1419 1418 1417 1416 1415
1498 1497 1496 1495 1494 1493 1491 1490 1489 1488 1487 1486 1485 1484 1483 1482 1480 1479 1479 1477 1476 1475 1474 1473 1471 1470 1469 1467 1466 1464 1463 1462 1460 1459 1457 1456 1454 1452 1451 1449 1448 1447 1446 1445 1443 1442 1440 1439 1437 1436 1434 1433 1431 1429 1428 1427 1425 1424 1423 1421 1420 1419 1418 1417 1416 1415 1414 1414 1413
1496 1495 1494 1493 1492 1491 1489 1488 1487 1486 1485 1484 1483 1482 1481 1480 1479 1478 1477 1475 1474 1473 1472 1470 1469 1468 1467 1465 1464 1463 1461 1460 1458 1456 1455 1454 1452 1450 1449 1447 1446 1445 1444 1443 1441 1439 1438 1436 1435 1434 1432 1430 1429 1428 1426 1424 1423 1422 1420 1419 1418 1416 1415 1414 1413 1413 1412 1412 1411
1494 1493 1492 1491 1490 1489 1488 1487 1485 1484 1483 1482 1481 1480 1479 1478 1477 1476 1475 1474 1472 1471 1469 1468 1467 1466 1465 1463 1462 1460 1459 1458 1457 1455 1453 1452 1450 1449 1447 1445 1443 1442 1441 1440 1439 1437 1436 1434 1433 1432 1430 1429 1427 1426 1424 1423 1421 1419 1418 1416 1415 1414 1413 1412 1411 1410 1409 1409 1409
1493 1491 1490 1489 1488 1487 1486 1485 1484 1483 1482 1480 1479 1479 1478 1477 1475 1474 1473 1472 1471 1469 1468 1466 1465 1464 1463 1461 1459 1458 1457 1456 1455 1453 1452 1450 1448 1447 1445 1443 1441 1440 1439 1438 1437 1435 1434 1432 1431 1429 1429 1427 1426 1424 1423 1421 1419 1417 1416 1414 1413 1411 1410 1409 1409 1408 1407 1406 1406
1491 1489 1489 1487 1486 1485 1484 1483 1482 1481 1480 1479 1478 1477 1476 1475 1474 1473 1472 1470 1469 1468 1466 1464 1463 1462 1461 1459 1458 1456 1454 1454 1453 1451 1450 1448 1446 1445 1443 1441 1439 1438 1437 1435 1434 1433 1431 1430 1429 1428 1427 1425 1424 1422 1421 1419 1417 1415 1414 1413 1411 1409 1408 1407 1407 1406 1405 1404 1404
1489 1488 1487 1485 1484 1483 1482 1481 1480 1479 1478 1477 1476 1475 1474 1473 1472 1471 1469 1469 1467 1466 1464 1463 1461 1460 1459 1457 1456 1454 1452 1451 1450 1449 1448 1446 1444 1443 1441 1439 1437 1435 1434 1433 1432 1430 1429 1428 1427 1426 1425 1424 1422 1421 1419 1418 1415 1414 1412 1410 1409 1408 1407 1405 1404 1404 1403 1402 1402